[[{"header":{"parameterUnit":"m.s-1","parameterCategory":1,"la1":30.2991,"la2":30.254,"lo1":-89.0895,"lo2":-89.0444,"dy":0.0017,"dx":0.0017,"nx":28,"ny":28,"refTime":"2024-06-27T09:00:00:Z","depth":0,"parameterNumber":2,"parameterNumberName":"U-component_of_WINDS"},"data":[0,0,0,0,0,0,0,0,0,0,0,0,0,0,0,0,0,0,0,0,0,0,0,0,0,0,0,0,0,0,0,0,0,0,0,0,0,0,0,0,0,0,0,0,0,0,0,0,0,0,0,0,0,0,0,0,0,0,4.6636,4.6637,0,4.6759,4.676,4.6761,4.668,4.6677,4.6673,4.6669,4.6797,4.6804,4.681,0,0,0,0,0,0,0,0,0,0,0,0,0,4.6331,4.6337,4.6636,4.6637,4.6639,4.6758,4.676,4.6762,4.6681,4.6676,4.6672,4.6668,4.6795,4.6803,4.6811,0,0,0,0,0,0,0,0,0,0,0,0,0,4.646,4.6339,4.6636,4.6613,4.6612,4.6758,4.676,4.6762,4.6682,4.6676,4.6671,4.6666,4.6792,4.6802,4.6812,4.6988,0,0,4.6844,4.6848,0,0,0,0,0,0,0,0,4.6452,4.6471,4.6615,4.6615,4.6614,4.6698,4.6699,4.6838,4.6683,4.6656,4.6669,4.6663,4.6769,4.6781,4.6816,4.6994,4.6999,4.6845,4.6851,4.6855,4.6858,0,0,0,0,0,0,0,4.6444,4.6465,4.6684,4.6617,4.6617,4.6596,4.6609,4.6725,4.6742,4.6658,4.6652,4.6667,4.6768,4.6806,4.6818,4.7001,4.6844,4.6854,4.686,4.6864,4.7324,4.733,0,0,0,0,0,0,4.6436,4.6458,4.6681,4.6688,4.6518,4.6606,4.662,4.6677,4.6741,4.6745,4.6672,4.6663,4.6791,4.6807,4.6823,4.7028,4.6855,4.6865,4.6871,4.7318,4.7325,4.7332,0,0,0,0,0,0,4.643,4.6457,4.6676,4.6572,4.6598,4.6618,4.6682,4.6682,4.6721,4.6752,4.6754,4.6709,4.6788,4.6808,4.6946,4.7032,4.687,4.6879,4.7311,4.732,4.7328,4.7444,0,0,0,0,0,0,4.6422,4.6455,4.6523,4.6574,4.6604,4.6798,4.6688,4.6689,4.6739,4.6728,4.6786,4.6791,4.6785,4.6931,4.6956,4.7043,4.6887,4.7303,4.7315,4.7326,4.7433,4.7456,4.7476,0,0,0,0,0,4.6411,4.6552,4.6527,4.6554,4.6688,4.6803,4.682,4.681,4.6746,4.6813,4.6832,4.6789,4.7019,4.6946,4.6974,4.7065,4.7298,4.7312,4.7325,4.7423,4.7451,4.7475,0,0,0,0,0,0,4.6512,4.6558,4.6531,4.6692,4.6744,4.6789,4.6873,4.6841,4.6912,4.69,4.6884,4.6898,4.7041,4.7067,4.6985,4.7236,4.7148,4.7168,4.7213,4.724,4.7262,4.7251,4.6896,0,0,0,0,0,4.6553,4.6642,4.6677,4.6816,4.6843,4.6854,4.6904,4.6891,4.6944,4.6966,4.6995,4.7049,4.7133,4.7189,4.7268,4.7436,4.7446,4.7513,4.7534,4.7552,4.7568,4.7655,4.7684,4.7376,4.7376,4.7376,0,0,4.6638,4.6674,4.6732,4.6837,4.6876,4.6967,4.6873,4.6975,4.7042,4.6982,4.7112,4.7136,4.7195,4.7347,4.7416,4.7373,4.7655,4.7569,4.7583,4.759,4.7672,4.7701,4.7727,4.7386,4.7384,4.7382,0,0,4.6839,4.6878,4.6995,4.7035,4.7094,4.7099,4.7128,4.7177,4.719,4.7321,4.7276,4.7356,4.7502,4.7544,4.7584,4.7799,4.776,4.7825,4.7937,4.8022,4.8046,4.8068,4.814,4.8167,4.7842,4.7842,4.7843,0,4.6938,4.7074,4.706,4.7164,4.721,4.7158,4.7276,4.7316,4.7398,4.7431,4.7381,4.756,4.7597,4.7756,4.7808,4.7844,4.7874,4.7817,4.8044,4.8065,4.8085,4.8154,4.8182,4.785,4.7849,4.7848,4.7847,0,4.719,4.7285,4.7373,4.7451,4.7508,4.7619,4.762,4.7679,4.7661,4.7672,4.7803,4.7845,4.7929,4.7967,4.7952,4.8124,4.8095,4.8046,4.7957,4.8122,4.8186,4.8213,4.786,4.7857,4.7855,4.7853,0,0,4.7459,4.7526,4.7558,4.7591,4.7651,4.7724,4.7831,4.7912,4.7961,4.802,4.8107,4.823,4.8184,4.823,4.8219,4.8294,4.8455,4.8234,4.8235,4.8271,4.8643,4.8677,4.8708,4.8431,4.8436,4.844,4.8637,0,4.7661,4.7846,4.7835,4.8009,4.8095,4.8045,4.8138,4.8185,4.8197,4.8271,4.8285,4.837,4.8304,4.8331,4.8403,4.842,4.8529,4.8407,4.851,4.8514,4.8494,4.8743,4.878,4.8964,4.8662,4.8667,4.867,0,4.7921,4.7985,4.8167,4.8211,4.8246,4.833,4.8401,4.8473,4.8524,4.8527,4.8577,4.8553,4.8659,4.8569,4.8714,4.8631,4.8673,4.8687,4.8694,4.8701,4.86,4.8753,4.9023,4.9049,4.871,4.8707,4.8704,0,4.8094,4.8226,4.8351,4.8381,4.8436,4.8495,4.8521,4.8566,4.8614,4.8677,4.8708,4.8784,4.8824,4.8882,4.8878,4.8814,4.9024,4.8935,4.9028,4.9028,4.9072,4.9069,4.9349,4.9105,4.9105,4.9104,4.9104,0,4.8318,4.8431,4.8428,4.8505,4.8628,4.8615,4.8737,4.8756,4.8796,4.8875,4.8838,4.8912,4.8904,4.8978,4.8976,4.9094,4.9114,4.9118,4.9115,4.912,4.9118,4.9145,4.913,4.9112,4.911,4.9109,4.9107,0,4.8531,4.8535,4.8667,4.8707,4.8719,4.8808,4.8842,4.8914,4.8922,4.9022,4.9044,4.9058,4.9143,4.9145,4.9244,4.9242,4.9385,4.937,4.9367,4.9363,4.9454,4.9444,4.9758,4.9797,4.9531,4.9534,4.9536,0,4.8673,4.8757,4.8805,4.8854,4.8883,4.8964,4.9012,4.9001,4.9052,4.9114,4.9178,4.926,4.9324,4.9463,4.9481,4.9555,4.9539,4.9644,4.955,4.955,4.9536,4.953,4.9536,4.9662,4.9665,4.9667,4.9669,0,4.8922,4.8918,4.8989,4.906,4.9117,4.9173,4.9224,4.9267,4.9261,4.9321,4.9407,4.9457,4.9555,4.9636,4.9707,4.9733,4.97,4.9699,4.9723,4.9727,4.972,4.9721,4.9413,4.9691,4.9689,4.9687,4.9686,4.9685,4.9101,4.9172,4.9216,4.9294,4.9331,4.9379,4.9447,4.9463,4.9534,4.9612,4.9602,4.9697,4.9742,4.9834,4.9866,4.9939,4.9902,4.994,4.9948,4.9957,4.9964,4.9711,4.9953,4.9952,4.9951,4.9951,4.995,0,4.9344,4.937,4.9442,4.9513,4.9575,4.9538,4.9591,4.9645,4.9728,4.9773,4.9836,4.9933,5.001,5.0034,5.0108,5.0162,5.0148,5.0181,5.0175,5.0181,4.9995,4.9964,5.0191,5.0191,5.0191,5.019,5.019,5.019,4.9478,4.9595,4.9597,4.9731,4.9755,4.9847,4.988,4.9923,4.9958,5.0067,5.013,5.0145,5.0181,5.0256,5.0325,5.0329,5.0357,5.0396,5.0394,5.0219,5.0195,5.0172,5.0142,5.0403,5.0403,5.0573,5.0575,5.0576]},{"header":{"parameterUnit":"m.s-1","parameterCategory":1,"la1":30.2991,"la2":30.254,"lo1":-89.0895,"lo2":-89.0444,"dy":0.0017,"dx":0.0017,"nx":28,"ny":28,"refTime":"2024-06-27T09:00:00:Z","depth":0,"parameterNumber":3,"parameterNumberName":"V-component_of_WINDS"},"data":[0,0,0,0,0,0,0,0,0,0,0,0,0,0,0,0,0,0,0,0,0,0,0,0,0,0,0,0,0,0,0,0,0,0,0,0,0,0,0,0,0,0,0,0,0,0,0,0,0,0,0,0,0,0,0,0,0,0,3.5235,3.5236,0,3.5304,3.5305,3.5306,3.5257,3.5254,3.5252,3.525,3.5319,3.5323,3.5327,0,0,0,0,0,0,0,0,0,0,0,0,0,3.5058,3.5062,3.5235,3.5236,3.5237,3.5304,3.5305,3.5306,3.5257,3.5254,3.5252,3.5249,3.5318,3.5323,3.5327,0,0,0,0,0,0,0,0,0,0,0,0,0,3.5132,3.5063,3.5235,3.5221,3.522,3.5304,3.5305,3.5306,3.5258,3.5254,3.5251,3.5248,3.5317,3.5322,3.5328,3.5429,0,0,3.5346,3.5348,0,0,0,0,0,0,0,0,3.5128,3.5138,3.5222,3.5222,3.5221,3.5269,3.5268,3.5347,3.5258,3.5243,3.525,3.5246,3.5305,3.5312,3.5332,3.5433,3.5435,3.5346,3.535,3.5352,3.5354,0,0,0,0,0,0,0,3.5123,3.5135,3.5262,3.5223,3.5223,3.521,3.5217,3.5283,3.5292,3.5244,3.5241,3.525,3.5304,3.5326,3.5333,3.5437,3.5346,3.5351,3.5355,3.5357,3.5621,3.5624,0,0,0,0,0,0,3.5119,3.5131,3.526,3.5265,3.5166,3.5216,3.5223,3.5257,3.5291,3.5293,3.5253,3.5247,3.5318,3.5326,3.5335,3.5454,3.5352,3.5358,3.5361,3.5617,3.5622,3.5625,0,0,0,0,0,0,3.5116,3.5131,3.5257,3.5197,3.5212,3.5222,3.526,3.526,3.5282,3.5297,3.5298,3.5274,3.5316,3.5327,3.5406,3.5456,3.536,3.5366,3.5613,3.5619,3.5624,3.5694,0,0,0,0,0,0,3.5111,3.513,3.517,3.5198,3.5216,3.5328,3.5263,3.5263,3.5292,3.5286,3.5317,3.5319,3.5314,3.5397,3.5411,3.5462,3.537,3.5609,3.5616,3.5622,3.5687,3.5701,3.5712,0,0,0,0,0,3.5105,3.5187,3.5172,3.5188,3.5265,3.5331,3.5341,3.5334,3.5296,3.5335,3.5345,3.5318,3.5448,3.5406,3.5421,3.5474,3.5606,3.5614,3.5621,3.5681,3.5698,3.5712,0,0,0,0,0,0,3.5164,3.5191,3.5174,3.5268,3.5298,3.5323,3.5372,3.5352,3.5392,3.5385,3.5374,3.5381,3.5463,3.5477,3.5429,3.5573,3.5521,3.5532,3.5561,3.5577,3.5589,3.5584,3.5375,0,0,0,0,0,3.5188,3.524,3.526,3.5341,3.5357,3.5362,3.5391,3.5382,3.5412,3.5424,3.544,3.5469,3.5516,3.5547,3.5592,3.5689,3.5694,3.5733,3.5745,3.5756,3.5765,3.5815,3.5832,3.5651,3.5651,3.5651,0,0,3.5238,3.5259,3.5293,3.5354,3.5376,3.5428,3.5373,3.5432,3.547,3.5433,3.5508,3.552,3.5552,3.5639,3.5679,3.5653,3.5816,3.5766,3.5774,3.5778,3.5825,3.5842,3.5857,3.5657,3.5656,3.5655,0,0,3.5356,3.5379,3.5447,3.547,3.5504,3.5506,3.5523,3.5551,3.5557,3.5632,3.5604,3.565,3.5732,3.5755,3.5778,3.5902,3.5878,3.5917,3.5984,3.6032,3.6046,3.6059,3.6101,3.6117,3.5927,3.5927,3.5927,0,3.5414,3.5494,3.5485,3.5546,3.5572,3.5541,3.5609,3.5632,3.5678,3.5697,3.5668,3.5768,3.5788,3.5879,3.5909,3.593,3.5946,3.5913,3.6045,3.6058,3.6069,3.6109,3.6126,3.5932,3.5931,3.5931,3.593,0,3.5562,3.5618,3.5669,3.5714,3.5747,3.5811,3.5811,3.5845,3.5833,3.5838,3.5914,3.5936,3.5983,3.6004,3.5994,3.6094,3.6076,3.6047,3.5994,3.6091,3.6128,3.6144,3.5938,3.5936,3.5935,3.5934,0,0,3.572,3.5759,3.5778,3.5797,3.5831,3.5873,3.5935,3.5981,3.6009,3.6042,3.6092,3.6162,3.6134,3.6159,3.6151,3.6194,3.6289,3.6158,3.6159,3.618,3.6397,3.6418,3.6436,3.6273,3.6276,3.6279,3.6393,0,3.5838,3.5947,3.594,3.6041,3.6091,3.6061,3.6115,3.6141,3.6147,3.6189,3.6195,3.6244,3.6204,3.6219,3.626,3.6268,3.6332,3.626,3.6318,3.632,3.631,3.6456,3.6479,3.6586,3.6408,3.6411,3.6413,0,3.5991,3.6028,3.6135,3.6159,3.618,3.6229,3.6269,3.6311,3.6338,3.634,3.6368,3.6352,3.6412,3.6359,3.6441,3.6393,3.6416,3.6423,3.6427,3.6431,3.6371,3.6462,3.6621,3.6636,3.6436,3.6434,3.6433,0,3.6093,3.617,3.6243,3.626,3.6292,3.6326,3.634,3.6365,3.6393,3.6428,3.6445,3.6488,3.651,3.6542,3.6538,3.65,3.6621,3.6568,3.6622,3.6622,3.6648,3.6646,3.681,3.6666,3.6665,3.6665,3.6665,0,3.6224,3.629,3.6289,3.6333,3.6405,3.6396,3.6468,3.6478,3.65,3.6545,3.6522,3.6565,3.6557,3.6599,3.6596,3.6663,3.6674,3.6675,3.6673,3.6676,3.6676,3.669,3.6682,3.6669,3.6669,3.6668,3.6667,0,3.635,3.6352,3.6429,3.6452,3.6459,3.6511,3.653,3.6571,3.6575,3.6632,3.6645,3.6651,3.6699,3.6698,3.6753,3.675,3.6832,3.6822,3.6823,3.682,3.6874,3.6868,3.7052,3.7075,3.6917,3.6918,3.692,0,3.6433,3.6483,3.6511,3.6539,3.6556,3.6603,3.663,3.6623,3.6652,3.6687,3.6724,3.677,3.6806,3.6884,3.6892,3.6934,3.6924,3.6985,3.693,3.693,3.6922,3.6918,3.6922,3.6996,3.6997,3.6999,3.7,0,3.658,3.6578,3.6619,3.666,3.6694,3.6726,3.6756,3.678,3.6775,3.681,3.6859,3.6887,3.6942,3.6987,3.7027,3.704,3.7019,3.7018,3.7032,3.7035,3.7032,3.7032,3.685,3.7013,3.7012,3.7011,3.701,3.701,3.6685,3.6727,3.6753,3.6799,3.682,3.6848,3.6887,3.6896,3.6936,3.6981,3.6974,3.7028,3.7053,3.7103,3.712,3.7161,3.7139,3.7161,3.7166,3.7171,3.7176,3.7027,3.7169,3.7168,3.7168,3.7168,3.7167,0,3.6829,3.6843,3.6886,3.6928,3.6963,3.6941,3.6972,3.7003,3.7051,3.7076,3.7112,3.7167,3.721,3.7222,3.7263,3.7294,3.7285,3.7304,3.7301,3.7304,3.7194,3.7177,3.7311,3.7311,3.7311,3.7311,3.7311,3.7311,3.6907,3.6976,3.6977,3.7056,3.707,3.7123,3.7142,3.7167,3.7187,3.7249,3.7285,3.7292,3.7311,3.7353,3.7391,3.7393,3.7409,3.7432,3.743,3.7327,3.7312,3.7298,3.7282,3.7436,3.7436,3.7536,3.7537,3.7538]}]]